Location: Prairie Dale
(45.6972°N, 104.5033°W)
Time: 22:46:01
(UTC+00:00)

ESTCUBE 1 - Pass Details

Date: 30 June 2022
Orbit: 645 x 657 km, 97.9° (Epoch: 16 August)

Event Time Altitude Azimuth Distance (km) Brightness Sun altitude
Exits shadow 04:49:04 25° 150° (SSE) 1,309 ? -14.8°
Maximum altitude 04:51:36 67° 74° (ENE) 706 ? -15.1°
Drops below altitude 10° 04:56:03 10° 352° (N) 2,059 ? -15.5°
Sets 04:58:17 0° 350° (N) 2,976 ? -15.6°
